Weather History for KMMU - May, 2013

Change the Weather History Date:

Thursday, May 2, 2013

  Actual Average Record
Temperature  
Mean Temperature 56 °F -  
Max Temperature 75 °F 70 °F 91 °F (2001)
Min Temperature 37 °F 45 °F 26 °F (1939)
Degree Days  
Heating Degree Days 9    
Growing Degree Days 6 (Base 50)    
Moisture  
Dew Point 39 °F    
Average Humidity 72    
Maximum Humidity 100    
Minimum Humidity 24    
Precipitation  
Precipitation 0.00 in - - ()
Sea Level Pressure  
Sea Level Pressure 30.42 in    
Wind  
Wind Speed 1 mph (SSE)    
Max Wind Speed 8 mph    
Max Gust Speed -    
Visibility 8 miles    
Events Fog    
Averages and records for this station are not official NWS values.
T = Trace of Precipitation, MM = Missing Value Source: NWS Daily Summary

Daily Weather History Graph

Daily Weather History Graph

Search for Another Location

Airport or City:

Trip Planner

Search our weather history database for the weather conditions in past years. The results will help you decide how hot, cold, wet, or windy it might be!

Date:

Astronomy

May. 02, 2013 Rise Set
Actual Time 5:54 AM EDT 7:55 PM EDT
Civil Twilight 5:24 AM EDT 8:25 PM EDT
Nautical Twilight 4:48 AM EDT 9:01 PM EDT
Astronomical Twilight 4:08 AM EDT 9:41 PM EDT
Moon 1:42 AM EDT (5/2) 12:39 PM EDT (5/2)
Length of Visible Light 15h 00m
Length of Day
14h 00m
Waning Gibbous, 48% of the Moon is Illuminated
May 2
Waning Gibbous
May 9
New
May 18
First Quarter
May 25
Full
May 31
Last Quarter

Hourly Weather History & Observations

Time (EDT) Temp. Dew Point Humidity Pressure Visibility Wind Dir Wind Speed Gust Speed Precip Events Conditions
12:15 AM 44.6 °F 41.0 °F 87% 30.48 in 10.0 mi Calm Calm - N/A   Clear
12:35 AM 44.6 °F 41.0 °F 87% 30.48 in 10.0 mi Calm Calm - N/A   Clear
12:55 AM 42.8 °F 39.2 °F 87% 30.48 in 10.0 mi Calm Calm - N/A   Clear
1:15 AM 41.0 °F 39.2 °F 93% 30.47 in 3.0 mi Calm Calm - N/A   Clear
1:35 AM 42.8 °F 41.0 °F 93% 30.46 in 3.0 mi Calm Calm - N/A   Clear
1:55 AM 42.8 °F 39.2 °F 87% 30.45 in 10.0 mi Calm Calm - N/A   Clear
2:15 AM 41.0 °F 37.4 °F 87% 30.44 in 0.5 mi Calm Calm - N/A Fog Fog
2:35 AM 41.0 °F 39.2 °F 93% 30.43 in 0.5 mi Calm Calm - N/A Fog Fog
2:55 AM 39.2 °F 37.4 °F 93% 30.43 in 10.0 mi Calm Calm - N/A   Scattered Clouds
3:15 AM 39.2 °F 35.6 °F 87% 30.43 in 2.5 mi Calm Calm - N/A   Clear
3:35 AM 39.2 °F 37.4 °F 93% 30.43 in 10.0 mi Calm Calm - N/A   Scattered Clouds
3:55 AM 37.4 °F 35.6 °F 93% 30.42 in 0.8 mi Calm Calm - N/A   Mist
4:15 AM 39.2 °F 37.4 °F 93% 30.42 in 10.0 mi Calm Calm - N/A   Clear
4:35 AM 37.4 °F 35.6 °F 93% 30.42 in 1.2 mi Calm Calm - N/A   Mist
4:55 AM 37.4 °F 35.6 °F 93% 30.43 in 10.0 mi Calm Calm - N/A   Clear
5:15 AM 37.4 °F 33.8 °F 87% 30.43 in 10.0 mi Calm Calm - N/A   Clear
5:35 AM 37.4 °F 35.6 °F 93% 30.43 in 0.8 mi Calm Calm - N/A   Mist
5:55 AM 37.4 °F 35.6 °F 93% 30.43 in 10.0 mi Calm Calm - N/A   Clear
6:15 AM 37.4 °F 33.8 °F 87% 30.44 in 10.0 mi Calm Calm - N/A   Clear
6:35 AM 37.4 °F 35.6 °F 93% 30.44 in 0.2 mi Calm Calm - N/A Fog Fog
6:45 AM 37.4 °F 37.4 °F 100% 30.45 in 10.0 mi Calm Calm - N/A   Clear
7:45 AM 44.6 °F 42.8 °F 93% 30.47 in 10.0 mi Calm Calm - N/A   Clear
8:45 AM 55.4 °F 44.6 °F 67% 30.47 in 10.0 mi Calm Calm - N/A   Clear
9:45 AM 59.0 °F 42.8 °F 55% 30.47 in 10.0 mi ESE 4.6 mph - N/A   Clear
10:45 AM 62.6 °F 42.8 °F 48% 30.47 in 10.0 mi West 3.5 mph - N/A   Clear
11:45 AM 66.2 °F 37.4 °F 35% 30.45 in 10.0 mi Calm Calm - N/A   Clear
12:45 PM 68.0 °F 39.2 °F 35% 30.43 in 10.0 mi East 5.8 mph - N/A   Clear
1:45 PM 71.6 °F 39.2 °F 31% 30.41 in 10.0 mi East 5.8 mph - N/A   Clear
2:45 PM 73.4 °F 37.4 °F 27% 30.39 in 10.0 mi Calm Calm - N/A   Clear
3:45 PM 75.2 °F 35.6 °F 24% 30.38 in 10.0 mi SSE 4.6 mph - N/A   Clear
4:45 PM 73.4 °F 41.0 °F 31% 30.36 in 10.0 mi South 6.9 mph - N/A   Clear
5:45 PM 71.6 °F 39.2 °F 31% 30.34 in 10.0 mi South 8.1 mph - N/A   Clear
6:45 PM 69.8 °F 39.2 °F 33% 30.33 in 10.0 mi South 6.9 mph - N/A   Clear
7:45 PM 68.0 °F 39.2 °F 35% 30.33 in 10.0 mi SSW 4.6 mph - N/A   Clear
8:45 PM 59.0 °F 44.6 °F 59% 30.33 in 10.0 mi Calm Calm - N/A   Clear
9:45 PM 59.0 °F 44.6 °F 59% 30.33 in 10.0 mi Calm Calm - N/A   Clear
10:55 PM 53.6 °F 44.6 °F 72% 30.34 in 10.0 mi Calm Calm - N/A   Clear
11:15 PM 51.8 °F 42.8 °F 71% 30.34 in 10.0 mi Calm Calm - N/A   Clear
11:35 PM 50.0 °F 44.6 °F 82% 30.34 in 10.0 mi Calm Calm - N/A   Clear
11:55 PM 53.6 °F 42.8 °F 67% 30.36 in 10.0 mi Calm Calm - N/A   Clear